Regional Weather Roundup
Issued by NWS

Home | Current Version | Previous Version | Graphics & Text | Print | Product List | Glossary On
Versions: 1 2 3 4 5 6 7 8 9 10 11 12 13 14 15 16 17 18 19 20 21 22 23 24 25 26 27
000
ASUS45 KCYS 172310
RWRWY

WYOMING REGIONAL WEATHER ROUNDUP
NATIONAL WEATHER SERVICE CHEYENNE WY
400 PM MST FRI NOV 17 2017

NOTE:  "FAIR" INDICATES FEW OR NO CLOUDS BELOW 12,000 FEET
WITH NO SIGNIFICANT WEATHER AND/OR OBSTRUCTIONS TO VISIBILITY.

WYZ001-180000-
YELLOWSTONE NATIONAL PARK

CITY           SKY/WX    TMP DP  RH WIND       PRES   REMARKS
LK YELLOWSTONE   N/A     21  14  74 NW7       29.80R WCI  12
W YELLOWSTONE  NOT AVBL

$$
WYZ002>013-054>058-071-098>099-180000-
NORTHERN WYOMING

CITY           SKY/WX    TMP DP  RH WIND       PRES   REMARKS
JACKSON        NOT AVBL
CODY           MOCLDY    33  23  66 W10       29.76R WCI  25
GREYBULL       MOCLDY    40  20  44 N14G22    29.74R WCI  32
WORLAND        MOCLDY    39  26  59 N18G25    29.73R WCI  30
SHERIDAN       CLOUDY    36  33  89 N5        29.71R WCI  32
BUFFALO        CLOUDY    34  27  75 NW15      29.73R WCI  24
GILLETTE       CLOUDY    35  32  88 W12       29.69R WCI  27
HULETT         CLOUDY    36  34  93 W7        29.69R WCI  30
NEWCASTLE      FAIR      36  34  93 CALM      29.65F

$$
WYZ014>020-022>026-101>103-180000-
CENTRAL WYOMING

CITY           SKY/WX    TMP DP  RH WIND       PRES   REMARKS
BIG PINEY      FAIR      29  23  78 W7        29.81R WCI  22
PINEDALE       FAIR      30  18  59 W15       29.79R WCI  19
DUBOIS         SNOW      23  19  86 NW22G35   29.76R VSB 1/2 WCI   8
LANDER         NOT AVBL
RIVERTON       MOCLDY    36  25  64 NE6       29.72R WCI  31
CASPER         LGT SNOW  32  31  96 NW8       29.71R VSB 3/4 WCI  25
DOUGLAS        LGT SNOW  34  34 100 N18G24    29.68R FOG     WCI  23

$$
WYZ021-027>030-104>119-180000-
SOUTHERN WYOMING

CITY           SKY/WX    TMP DP  RH WIND       PRES   REMARKS
EVANSTON       CLOUDY    25  22  88 W15       29.93R WCI  13
FORT BRIDGER   CLOUDY    28  25  88 W23G29    29.94R WCI  14
ROCK SPRINGS   CLOUDY    29  23  78 W20       29.81R WCI  16
DIXON          SNOW      33  32  96 W5        29.82R VSB 1/2 WCI  28
RAWLINS        LGT SNOW  33  30  88 W17G26    29.73R WCI  22
SARATOGA       SNOW      32  32 100 N6        29.75R VSB 1/2 WCI  26
LARAMIE        FLURRIES  31  30  96 NW23      29.70F WCI  18
CHEYENNE       CLOUDY    39  32  76 NW22G32   29.69R WCI  29
TORRINGTON     CLOUDY    45  41  86 SW6       29.62S
PINE BLUFFS    CLOUDY    43  41  93 N13G18    29.66R

$$




USA.gov is the U.S. government's official web portal to all federal, state and local government web resources and services.